This is the latest recevied weather packets stored in our database for station/object K7KAZ. If no packets are shown the sender has not sent any weather packets the latest 10 day(s).
| Time | Temp. | Humidity | Pressure | Rain* | Wind** | Luminosity | Snow |
|---|---|---|---|---|---|---|---|
| 1778023595 | 23.89° C | 28% | 1011.9 hPa | 0 mm | - | 344 W/m² | - |
| 1778023292 | 23.89° C | 27% | 1012 hPa | 0 mm | - | 372 W/m² | - |
| 1778022989 | 23.33° C | 28% | 1012.2 hPa | 0 mm | - | 402 W/m² | - |
| 1778022688 | 23.89° C | 29% | 1012.2 hPa | 0 mm | - | 321 W/m² | - |
| 1778022386 | 23.33° C | 30% | 1012.1 hPa | 0 mm | - | 385 W/m² | - |
| 1778022081 | 23.33° C | 31% | 1012 hPa | 0 mm | - | 431 W/m² | - |
| 1778021778 | 23.33° C | 30% | 1012.2 hPa | 0 mm | - | 270 W/m² | - |
| 1778021474 | 23.33° C | 30% | 1012.2 hPa | 0 mm | - | 374 W/m² | - |
| 1778021171 | 23.89° C | 28% | 1012.3 hPa | 0 mm | - | 406 W/m² | - |
| 1778020868 | 23.89° C | 28% | 1012.4 hPa | 0 mm | - | 410 W/m² | - |
| 1778020566 | 23.89° C | 29% | 1012.4 hPa | 0 mm | - | 520 W/m² | - |
| 1778020262 | 23.89° C | 29% | 1012.4 hPa | 0 mm | - | 427 W/m² | - |
| 1778019958 | 23.33° C | 30% | 1012.5 hPa | 0 mm | - | 361 W/m² | - |
| 1778019654 | 23.89° C | 29% | 1012.5 hPa | 0 mm | - | 553 W/m² | - |
| 1778019352 | 23.33° C | 31% | 1012.2 hPa | 0 mm | - | 184 W/m² | - |
| 1778019048 | 23.33° C | 31% | 1012.6 hPa | 0 mm | - | 165 W/m² | - |
| 1778018745 | 23.89° C | 30% | 1012.7 hPa | 0 mm | - | 484 W/m² | - |
| 1778018443 | 24.44° C | 30% | 1012.8 hPa | 0 mm | - | 497 W/m² | - |
| 1778018141 | 23.89° C | 30% | 1012.5 hPa | 0 mm | - | 608 W/m² | - |
| 1778017838 | 23.89° C | 30% | 1012.7 hPa | 0 mm | - | 606 W/m² | - |
| 1778017536 | 22.78° C | 31% | 1012.9 hPa | 0 mm | - | 603 W/m² | - |
| 1778017233 | 24.44° C | 29% | 1012.8 hPa | 0 mm | - | 746 W/m² | - |
| 1778016931 | 23.33° C | 31% | 1012.8 hPa | 0 mm | - | 758 W/m² | - |
| 1778016627 | 23.89° C | 30% | 1012.6 hPa | 0 mm | - | 165 W/m² | - |
| 1778016323 | 23.33° C | 30% | 1013 hPa | 0 mm | - | 667 W/m² | - |
* Rain latest hour (hover to see other rain measurements)
** Current wind speed in m/s (hover to see current wind gust speed)